Terug naar catalogus

GRUS-3G

ActiefWetenschapSSO
NORAD 69878·PAYLOAD·🇨🇦 Canada

Gelanceerd Jul 7, 2026 vanaf Vandenberg Space Force Base

Loading…

Volgende Passages (komende 24 uur)

TLE

VersSource: Space-Track

Epoch: Sep 14, 2026, 03:54 UTC

1 69878U 26156K   26257.16258915  .00000618  00000-0  66747-4 0  9996
2 69878  97.7431 156.4413 0005293 285.2350  74.8283 14.91803305 10264

Volg GRUS-3G in realtime met AllMySat

Download on the App Store